[[{"header":{"parameterUnit":"m.s-1","parameterCategory":2,"la1":30.2992,"la2":30.254,"lo1":-89.0895,"lo2":-89.0443,"dy":0.0025,"dx":0.0025,"nx":19,"ny":19,"refTime":"2026-03-16T09:00:00:Z","depth":"0","parameterNumber":2,"parameterNumberName":"U-component_of_CURRENTS"},"data":[0,0,0,0.4438,0.444,0.4521,0.4521,0.4566,0.4566,0,0,0,0,0,0,0,0,0,0,0,0.4395,0.4396,0.4438,0.4441,0.4521,0.4521,0.4566,0.4566,0,0,0,0,0,0,0,0,0,0,0,0.4395,0.4396,0.4397,0.4441,0.4521,0.4521,0.4566,0.4515,0,0,0,0,0,0,0,0,0,0,0.4442,0.4412,0.4396,0.4397,0.4442,0.4521,0.4521,0.4513,0.4518,0.4519,0,0.4537,0,0.4568,0.457,0.457,0,0,0,0.4422,0.4408,0.4442,0.4397,0.4443,0.4521,0.4479,0.4516,0.4522,0.4525,0.4538,0.4541,0.4568,0.457,0.457,0.4715,0.4717,0,0,0.4417,0.4396,0.4438,0.4446,0.4471,0.4477,0.4482,0.452,0.452,0.4539,0.4543,0.4569,0.457,0.4571,0.4714,0.4716,0,0,0,0.4417,0.4393,0.4426,0.4443,0.4471,0.448,0.4486,0.4518,0.4534,0.4543,0.457,0.4571,0.4571,0.4713,0.4715,0.4805,0,0,0,0.4414,0.4395,0.4424,0.441,0.4471,0.4504,0.4483,0.453,0.4536,0.4569,0.4571,0.4572,0.4712,0.4714,0.4799,0.4866,0,0,0,0.439,0.4392,0.4406,0.441,0.4457,0.4504,0.452,0.4532,0.4553,0.457,0.4572,0.4711,0.4714,0.4795,0.4858,0.5,0,0,0,0.4358,0.4403,0.4406,0.4471,0.4456,0.457,0.452,0.4573,0.4593,0.4571,0.4712,0.4715,0.4793,0.4852,0.4993,0.5174,0.522,0,0,0.4403,0.4407,0.4452,0.4458,0.4581,0.4556,0.4674,0.4656,0.4639,0.4688,0.4692,0.4801,0.4857,0.4999,0.534,0.5381,0,0,0,0.446,0.449,0.453,0.4598,0.4668,0.4742,0.4738,0.4742,0.4781,0.4669,0.4835,0.4869,0.4954,0.505,0.5083,0.5393,0.4728,0.4728,0.4727,0.446,0.4529,0.4623,0.4717,0.4788,0.4864,0.4916,0.4927,0.4879,0.4914,0.4965,0.5169,0.5271,0.5298,0.5615,0.4977,0.4978,0.4978,0.4978,0.4509,0.4536,0.4676,0.4777,0.4884,0.4975,0.5082,0.5068,0.5189,0.5089,0.5168,0.5169,0.534,0.5665,0.4985,0.4984,0.4983,0.4982,0.4982,0.4386,0.4429,0.451,0.4694,0.4887,0.5037,0.5212,0.5287,0.5294,0.5377,0.5524,0.5524,0.5793,0.5434,0.5435,0.5436,0.5437,0.5438,0.5438,0.4201,0.4312,0.439,0.4631,0.4782,0.5029,0.5309,0.5437,0.5653,0.5682,0.5684,0.5942,0.5309,0.5273,0.5453,0.545,0.5448,0.5447,0.5446,0.4071,0.4072,0.4228,0.4357,0.4743,0.4942,0.528,0.5706,0.5896,0.605,0.6427,0.5855,0.5861,0.5835,0.5813,0.6122,0.6122,0.6122,0.6122,0.3946,0.397,0.4144,0.4321,0.4578,0.4891,0.5204,0.5723,0.6426,0.6794,0.6881,0.6843,0.6801,0.6858,0.6809,0.6804,0.7358,0.736,0.7362,0.3929,0.4002,0.4079,0.4233,0.4505,0.4768,0.5065,0.5729,0.69,0.7437,0.7294,0.7241,0.7195,0.7104,0.718,0.7086,0.7069,0,0]},{"header":{"parameterUnit":"m.s-1","parameterCategory":2,"la1":30.2992,"la2":30.254,"lo1":-89.0895,"lo2":-89.0443,"dy":0.0025,"dx":0.0025,"nx":19,"ny":19,"refTime":"2026-03-16T09:00:00:Z","depth":"0","parameterNumber":3,"parameterNumberName":"V-component_of_CURRENTS"},"data":[0,0,0,-0.0441,-0.0442,-0.0506,-0.0506,-0.0602,-0.0603,0,0,0,0,0,0,0,0,0,0,0,-0.0415,-0.0415,-0.0441,-0.0442,-0.0506,-0.0506,-0.0602,-0.0603,0,0,0,0,0,0,0,0,0,0,0,-0.0415,-0.0415,-0.0415,-0.0442,-0.0506,-0.0506,-0.0602,-0.0554,0,0,0,0,0,0,0,0,0,0,-0.0492,-0.0457,-0.0415,-0.0415,-0.0443,-0.0506,-0.0506,-0.0551,-0.0557,-0.0572,0,-0.0568,0,-0.0583,-0.0608,-0.0608,0,0,0,-0.0458,-0.0452,-0.047,-0.0415,-0.0443,-0.0506,-0.0482,-0.0554,-0.056,-0.0579,-0.057,-0.0573,-0.0585,-0.0608,-0.0609,-0.0583,-0.0582,0,0,-0.0454,-0.0431,-0.0465,-0.0473,-0.0442,-0.0479,-0.0483,-0.0558,-0.0556,-0.057,-0.0576,-0.0586,-0.0609,-0.061,-0.0584,-0.0583,0,0,0,-0.0434,-0.0428,-0.0445,-0.0469,-0.0477,-0.0481,-0.0485,-0.0553,-0.0558,-0.0577,-0.0587,-0.0609,-0.061,-0.0585,-0.0583,-0.0428,0,0,0,-0.0432,-0.0416,-0.0443,-0.0431,-0.0475,-0.0513,-0.0479,-0.0553,-0.0562,-0.0587,-0.061,-0.0611,-0.0586,-0.0584,-0.0435,-0.034,0,0,0,-0.0415,-0.0414,-0.0416,-0.0429,-0.0451,-0.0512,-0.0522,-0.0556,-0.0568,-0.0608,-0.0611,-0.0586,-0.0584,-0.044,-0.0351,-0.0276,0,0,0,-0.0399,-0.0358,-0.0415,-0.037,-0.045,-0.0423,-0.0522,-0.0527,-0.055,-0.061,-0.0586,-0.0584,-0.0442,-0.0357,-0.0283,-0.011,-0.0066,0,0,-0.033,-0.0349,-0.032,-0.0372,-0.031,-0.0416,-0.0354,-0.0442,-0.0526,-0.0568,-0.0567,-0.0432,-0.0351,-0.0278,0.001,0.0051,0,0,0,-0.0287,-0.0261,-0.0255,-0.0236,-0.0251,-0.024,-0.0326,-0.0367,-0.0411,-0.0528,-0.0434,-0.0387,-0.0346,-0.0255,-0.0223,-0.0222,-0.0574,-0.0574,-0.0574,-0.0155,-0.0163,-0.009,-0.0089,-0.0074,-0.0121,-0.0124,-0.0195,-0.0299,-0.0292,-0.0262,-0.0098,0.0001,0.0027,0.0026,-0.028,-0.0279,-0.0279,-0.0278,0.0009,0.0079,0.0056,0.0123,0.0111,0.0146,0.0088,0.0015,0.0003,-0.0114,-0.0083,-0.0097,0.0073,0.0058,-0.0268,-0.027,-0.0271,-0.0272,-0.0273,0.018,0.0206,0.0232,0.0318,0.037,0.0324,0.0421,0.0312,0.0174,0.0201,0.0253,0.0251,0.0238,0.0201,0.0201,0.0202,0.0203,0.0203,0.0204,0.0346,0.0371,0.0467,0.0518,0.0566,0.0656,0.0621,0.0625,0.0564,0.0462,0.0462,0.0323,0.0048,0.0029,0.0216,0.0214,0.0212,0.0211,0.021,0.0511,0.0537,0.0688,0.0754,0.0895,0.1135,0.1054,0.1106,0.1017,0.1026,0.076,0.0583,0.0549,0.0522,0.0514,0.0816,0.0816,0.0816,0.0816,0.0607,0.0634,0.0847,0.1007,0.1218,0.1359,0.1725,0.1754,0.1428,0.1273,0.1007,0.0937,0.0912,0.0891,0.0856,0.0849,0.1229,0.1229,0.123,0.065,0.0729,0.0897,0.1099,0.1343,0.1675,0.2125,0.2487,0.1918,0.1236,0.098,0.0963,0.0836,0.0797,0.0731,0.0682,0.0657,0,0]}],[{"header":{"parameterUnit":"m.s-1","parameterCategory":2,"la1":30.2992,"la2":30.254,"lo1":-89.0895,"lo2":-89.0443,"dy":0.0025,"dx":0.0025,"nx":19,"ny":19,"refTime":"2026-03-16T09:00:00:Z","depth":"2","parameterNumber":2,"parameterNumberName":"U-component_of_CURRENTS"},"data":[0,0,0,0.4425,0.4428,0.4509,0.4509,0.4553,0.4554,0,0,0,0,0,0,0,0,0,0,0,0.4383,0.4383,0.4425,0.4428,0.4509,0.4509,0.4553,0.4554,0,0,0,0,0,0,0,0,0,0,0,0.4382,0.4383,0.4384,0.4428,0.4509,0.4509,0.4553,0.4502,0,0,0,0,0,0,0,0,0,0,0.4429,0.4399,0.4383,0.4384,0.4429,0.4509,0.4509,0.45,0.4505,0.4506,0,0.4525,0,0.4555,0.4557,0.4557,0,0,0,0.4409,0.4395,0.4429,0.4384,0.443,0.4508,0.4467,0.4504,0.4509,0.4513,0.4526,0.4528,0.4556,0.4558,0.4558,0.4703,0.4704,0,0,0.4405,0.4383,0.4425,0.4433,0.4459,0.4464,0.447,0.4507,0.4508,0.4526,0.453,0.4556,0.4558,0.4558,0.4701,0.4703,0,0,0,0.4405,0.438,0.4414,0.443,0.4458,0.4467,0.4473,0.4506,0.4521,0.4531,0.4557,0.4558,0.4559,0.47,0.4702,0.4792,0,0,0,0.4401,0.4382,0.4412,0.4398,0.4458,0.4491,0.447,0.4518,0.4524,0.4557,0.4558,0.4559,0.4699,0.4701,0.4787,0.4854,0,0,0,0.4378,0.438,0.4394,0.4397,0.4444,0.4492,0.4508,0.4519,0.4541,0.4557,0.4559,0.4698,0.4701,0.4782,0.4845,0.4987,0,0,0,0.4345,0.439,0.4393,0.4458,0.4444,0.4557,0.4508,0.456,0.458,0.4558,0.4699,0.4702,0.478,0.484,0.498,0.4942,0.497,0,0,0.439,0.4394,0.4439,0.4445,0.4568,0.4544,0.4661,0.4644,0.4626,0.4675,0.4679,0.4788,0.4844,0.4986,0.5108,0.5131,0,0,0,0.4447,0.4476,0.4516,0.4584,0.4655,0.4729,0.4725,0.4729,0.4769,0.4657,0.4822,0.4856,0.4941,0.4905,0.4924,0.4715,0.4715,0.4715,0.4715,0.4446,0.4514,0.4608,0.4702,0.4774,0.4851,0.4903,0.4914,0.4866,0.4901,0.4952,0.5156,0.5117,0.5131,0.4964,0.4965,0.4965,0.4965,0.4965,0.4489,0.4514,0.4657,0.4757,0.4867,0.4959,0.5069,0.5055,0.5176,0.5076,0.5155,0.503,0.5157,0.4973,0.4972,0.4971,0.497,0.4969,0.4969,0.4361,0.4404,0.4485,0.4667,0.4865,0.502,0.5199,0.5274,0.5281,0.5364,0.5364,0.5361,0.523,0.5421,0.5422,0.5423,0.5424,0.5424,0.5425,0.4172,0.4283,0.4359,0.46,0.4756,0.5008,0.5294,0.5424,0.5547,0.5502,0.5501,0.5311,0.5296,0.526,0.544,0.5437,0.5435,0.5434,0.5433,0.4029,0.4037,0.4194,0.4325,0.4718,0.4652,0.5181,0.5526,0.5761,0.5848,0.5586,0.5578,0.5562,0.5544,0.5515,0.5751,0.5751,0.5751,0.5751,0.3899,0.3925,0.4109,0.4293,0.4556,0.4521,0.4405,0.4393,0.4811,0.4775,0.4812,0.4582,0.46,0.4512,0.4518,0.4458,0.4419,0.4414,0.441,0.3867,0.3953,0.4036,0.4208,0.4488,0.4127,0.3481,0.2977,0.3557,0.4314,0.4123,0.575,0.5518,0.5502,0.545,0.5426,0.5365,0,0]},{"header":{"parameterUnit":"m.s-1","parameterCategory":2,"la1":30.2992,"la2":30.254,"lo1":-89.0895,"lo2":-89.0443,"dy":0.0025,"dx":0.0025,"nx":19,"ny":19,"refTime":"2026-03-16T09:00:00:Z","depth":"2","parameterNumber":3,"parameterNumberName":"V-component_of_CURRENTS"},"data":[0,0,0,-0.0419,-0.042,-0.0483,-0.0484,-0.0579,-0.058,0,0,0,0,0,0,0,0,0,0,0,-0.0392,-0.0392,-0.0419,-0.042,-0.0483,-0.0484,-0.0579,-0.058,0,0,0,0,0,0,0,0,0,0,0,-0.0392,-0.0392,-0.0392,-0.042,-0.0483,-0.0484,-0.0579,-0.0531,0,0,0,0,0,0,0,0,0,0,-0.0469,-0.0434,-0.0392,-0.0392,-0.042,-0.0483,-0.0484,-0.0528,-0.0534,-0.0549,0,-0.0545,0,-0.056,-0.0585,-0.0585,0,0,0,-0.0435,-0.0429,-0.0447,-0.0392,-0.042,-0.0483,-0.0459,-0.0531,-0.0537,-0.0556,-0.0546,-0.055,-0.0561,-0.0585,-0.0586,-0.0559,-0.0558,0,0,-0.0431,-0.0409,-0.0443,-0.045,-0.0419,-0.0457,-0.0461,-0.0535,-0.0533,-0.0547,-0.0552,-0.0563,-0.0586,-0.0586,-0.056,-0.0559,0,0,0,-0.0411,-0.0406,-0.0422,-0.0446,-0.0454,-0.0458,-0.0463,-0.053,-0.0535,-0.0553,-0.0564,-0.0586,-0.0587,-0.0561,-0.056,-0.0405,0,0,0,-0.041,-0.0393,-0.042,-0.0408,-0.0452,-0.049,-0.0456,-0.053,-0.0539,-0.0564,-0.0586,-0.0588,-0.0562,-0.056,-0.0411,-0.0316,0,0,0,-0.0393,-0.0392,-0.0394,-0.0407,-0.0428,-0.0489,-0.05,-0.0533,-0.0545,-0.0585,-0.0588,-0.0563,-0.0561,-0.0417,-0.0327,-0.0253,0,0,0,-0.0376,-0.0335,-0.0393,-0.0348,-0.0427,-0.04,-0.0499,-0.0504,-0.0527,-0.0587,-0.0562,-0.056,-0.0418,-0.0334,-0.026,-0.0064,-0.0018,0,0,-0.0308,-0.0326,-0.0297,-0.035,-0.0287,-0.0393,-0.0331,-0.0419,-0.0502,-0.0544,-0.0544,-0.0409,-0.0328,-0.0254,0.0056,0.0099,0,0,0,-0.0264,-0.0237,-0.0231,-0.0212,-0.0228,-0.0217,-0.0303,-0.0344,-0.0387,-0.0505,-0.041,-0.0363,-0.0322,-0.0218,-0.0184,-0.055,-0.055,-0.055,-0.055,-0.0131,-0.0139,-0.0066,-0.0065,-0.005,-0.0098,-0.0101,-0.0171,-0.0275,-0.0268,-0.0239,-0.0074,0.0039,0.0066,-0.0257,-0.0256,-0.0256,-0.0255,-0.0255,0.0036,0.0106,0.0082,0.015,0.0136,0.0171,0.0111,0.0038,0.0026,-0.0091,-0.006,-0.0061,0.0113,-0.0242,-0.0245,-0.0246,-0.0248,-0.0249,-0.0249,0.0209,0.0235,0.0262,0.0348,0.0397,0.035,0.0444,0.0335,0.0197,0.0224,0.0291,0.0289,0.0025,0.0224,0.0224,0.0225,0.0226,0.0226,0.0227,0.0377,0.0403,0.0499,0.055,0.0596,0.0683,0.0645,0.0648,0.0596,0.0502,0.0502,0.0087,0.0071,0.0052,0.0239,0.0237,0.0235,0.0234,0.0233,0.0551,0.0571,0.0722,0.0786,0.0924,0.1233,0.1099,0.1157,0.1052,0.1068,0.0647,0.0632,0.0601,0.0574,0.0566,0.0875,0.0875,0.0875,0.0875,0.0649,0.0675,0.0881,0.1037,0.1245,0.1478,0.188,0.1793,0.1441,0.1229,0.1213,0.1157,0.1124,0.1114,0.1073,0.1071,0.1513,0.1514,0.1515,0.0702,0.0771,0.0936,0.1127,0.1367,0.1866,0.2408,0.2368,0.1781,0.1534,0.126,0.093,0.0798,0.0766,0.0699,0.0655,0.0631,0,0]}],[{"header":{"parameterUnit":"m.s-1","parameterCategory":2,"la1":30.2992,"la2":30.254,"lo1":-89.0895,"lo2":-89.0443,"dy":0.0025,"dx":0.0025,"nx":19,"ny":19,"refTime":"2026-03-16T09:00:00:Z","depth":"4","parameterNumber":2,"parameterNumberName":"U-component_of_CURRENTS"},"data":[0,0,0,0.1784,0.1788,0.1957,0.1958,0.2111,0.2112,0,0,0,0,0,0,0,0,0,0,0,0.1738,0.1739,0.1784,0.1788,0.1957,0.1958,0.2111,0.2112,0,0,0,0,0,0,0,0,0,0,0,0.1737,0.1739,0.1741,0.1789,0.1957,0.1958,0.211,0.1999,0,0,0,0,0,0,0,0,0,0,0.1842,0.1814,0.1738,0.1741,0.179,0.1957,0.1958,0.1994,0.2006,0.2015,0,0.2058,0,0.2083,0.2121,0.2121,0,0,0,0.1789,0.1805,0.1843,0.1741,0.1791,0.1957,0.1881,0.2001,0.2014,0.203,0.2061,0.2067,0.2085,0.2122,0.2122,0.2299,0.23,0,0,0.178,0.1772,0.1834,0.1852,0.1856,0.1876,0.1887,0.201,0.2035,0.2061,0.207,0.2088,0.2122,0.2123,0.2299,0.23,0,0,0,0.1752,0.1766,0.1803,0.1845,0.1878,0.1881,0.1893,0.203,0.2041,0.2072,0.209,0.2123,0.2125,0.2297,0.2299,0.2386,0,0,0,0.1747,0.1749,0.1799,0.1796,0.1877,0.1966,0.191,0.2033,0.2047,0.2089,0.2123,0.2126,0.2296,0.2298,0.2381,0.24,0,0,0,0.1726,0.1747,0.1771,0.1795,0.1866,0.1965,0.1984,0.2037,0.2057,0.2121,0.2126,0.2296,0.2298,0.2377,0.2394,0.2474,0,0,0,0.1703,0.1736,0.1772,0.1828,0.1864,0.1972,0.1984,0.2085,0.2147,0.2124,0.2296,0.2299,0.2376,0.239,0.247,0.2102,0,0,0,0.1717,0.1738,0.177,0.1805,0.1887,0.1948,0.2071,0.2161,0.2182,0.2249,0.2254,0.2383,0.2393,0.2473,0.2241,0,0,0,0,0.1755,0.177,0.1807,0.1874,0.1963,0.2078,0.2166,0.2221,0.2335,0.2229,0.2406,0.2409,0.2457,0.223,0.231,0.231,0.2309,0.2309,0.2309,0.1733,0.1783,0.183,0.1911,0.201,0.218,0.2284,0.2378,0.2392,0.2469,0.2498,0.2639,0.2404,0.2528,0.2528,0.2529,0.2529,0.2529,0.253,0.1703,0.1728,0.1825,0.1885,0.2047,0.2182,0.2405,0.248,0.2636,0.2602,0.2646,0.2358,0.2539,0.2537,0.2536,0.2535,0.2534,0.2533,0.2533,0.1691,0.1698,0.1753,0.1843,0.2011,0.2209,0.2392,0.2582,0.2702,0.2775,0.2552,0.2707,0.2679,0.282,0.282,0.2821,0.2821,0.2821,0.2822,0.1635,0.1681,0.1693,0.1801,0.1886,0.2093,0.2414,0.2534,0.2723,0.2606,0.2815,0.2737,0.2727,0.2697,0.2829,0.2828,0.2827,0.2826,0.2826,0.1506,0.1585,0.1585,0.1635,0.1793,0.1921,0.2254,0.2411,0.2516,0.2503,0.2516,0.2529,0.2463,0.2461,0.2417,0.2472,0.2468,0.2464,0,0.1411,0.1446,0.1434,0.1477,0.1581,0.1812,0.1896,0.2086,0.2251,0.2161,0.2525,0.2534,0.2542,0.2461,0.2453,0.2397,0,0,0,0.1225,0.1293,0.1221,0.134,0.1442,0.1663,0.1914,0.1894,0.2218,0.2206,0.2357,0.2385,0.2642,0.2851,0.2782,0.277,0.2718,0,0]},{"header":{"parameterUnit":"m.s-1","parameterCategory":2,"la1":30.2992,"la2":30.254,"lo1":-89.0895,"lo2":-89.0443,"dy":0.0025,"dx":0.0025,"nx":19,"ny":19,"refTime":"2026-03-16T09:00:00:Z","depth":"4","parameterNumber":3,"parameterNumberName":"V-component_of_CURRENTS"},"data":[0,0,0,0.0764,0.0764,0.0747,0.0747,0.0667,0.0667,0,0,0,0,0,0,0,0,0,0,0,0.0777,0.0778,0.0764,0.0764,0.0747,0.0747,0.0668,0.0667,0,0,0,0,0,0,0,0,0,0,0,0.0777,0.0778,0.0778,0.0764,0.0747,0.0747,0.0668,0.0692,0,0,0,0,0,0,0,0,0,0,0.0714,0.0742,0.0778,0.0778,0.0764,0.0747,0.0747,0.0693,0.069,0.0663,0,0.0679,0,0.0673,0.0661,0.0661,0,0,0,0.075,0.0745,0.0739,0.0778,0.0764,0.0747,0.0751,0.0692,0.0688,0.0659,0.0678,0.0675,0.0672,0.0661,0.0661,0.0613,0.0613,0,0,0.0751,0.0768,0.0742,0.0738,0.0782,0.0751,0.075,0.069,0.0695,0.0678,0.0673,0.067,0.066,0.066,0.0613,0.0613,0,0,0,0.0763,0.0769,0.0765,0.0741,0.0744,0.0751,0.075,0.0698,0.0697,0.0672,0.0669,0.066,0.0659,0.0613,0.0613,0.0716,0,0,0,0.0763,0.0777,0.0766,0.0775,0.0746,0.0729,0.0759,0.0702,0.0695,0.067,0.066,0.0658,0.0613,0.0613,0.0713,0.0783,0,0,0,0.0774,0.0777,0.0783,0.0776,0.0774,0.073,0.0726,0.07,0.0693,0.0661,0.0658,0.0613,0.0613,0.071,0.0777,0.0769,0,0,0,0.078,0.0823,0.0784,0.0829,0.0775,0.079,0.0726,0.0723,0.0705,0.066,0.0613,0.0613,0.071,0.0773,0.0767,0.0819,0,0,0,0.0841,0.0831,0.0858,0.0822,0.0875,0.079,0.0812,0.0755,0.0692,0.0626,0.0625,0.0714,0.0776,0.0769,0.0828,0,0,0,0,0.0881,0.0917,0.0922,0.0943,0.0917,0.0898,0.0831,0.0782,0.0725,0.0683,0.0688,0.0725,0.0716,0.0737,0.0614,0.0614,0.0614,0.0614,0.0614,0.0998,0.0991,0.1057,0.1052,0.1046,0.0967,0.0932,0.0846,0.078,0.076,0.0789,0.0832,0.0857,0.0751,0.0751,0.0752,0.0752,0.0752,0.0752,0.1132,0.1167,0.117,0.1241,0.1188,0.1188,0.1054,0.0982,0.09,0.0846,0.0831,0.0821,0.0762,0.076,0.0759,0.0758,0.0757,0.0756,0.0756,0.1193,0.1212,0.1281,0.1379,0.1416,0.1345,0.134,0.12,0.1028,0.1007,0.0975,0.0886,0.0897,0.0984,0.0985,0.0985,0.0985,0.0986,0.0986,0.1223,0.129,0.1422,0.1526,0.1597,0.1637,0.1516,0.1427,0.1224,0.1107,0.1036,0.0909,0.0901,0.0908,0.099,0.0989,0.0989,0.0988,0.0988,0.1309,0.135,0.1529,0.1644,0.1822,0.1834,0.1771,0.1537,0.1424,0.1268,0.1123,0.1115,0.1076,0.1064,0.1075,0.1209,0.121,0.1211,0,0.1359,0.1393,0.1638,0.1818,0.1943,0.1946,0.184,0.1697,0.1408,0.1396,0.1378,0.1224,0.1214,0.1178,0.1168,0.1188,0,0,0,0.1458,0.1502,0.1676,0.1847,0.1989,0.188,0.1805,0.1705,0.149,0.1362,0.1236,0.123,0.1171,0.1003,0.0923,0.0914,0.092,0,0]}]]